No particular awareness of the weather is required.    There are no Weather-warnings


Meteo18 Weather Cam more information Meteo18 Weather Cam


Thunder radar more information blitzortung!


Rain radar more information rain snow radar


Visit our other weather sites:

Template documentation
and downloads

And another site



Weather Underground History page Text

Daily Summary for October 12, 2017 Units:  English    Metric   Both
« Previous Day
Next Day »
Daily Weekly Monthly Yearly Custom
  High: Low: Average:
Temperature: 64.9 °F 53.1 °F 58.5 °F
Dew Point: 60.4 °F 52 °F 56.1 °F
Humidity: 97 % 80 % 92 %
Wind Speed: 7 mph 0 mph 2.4 mph
Wind Gust: 12 mph - -
Wind:- - SW
Pressure: 30.4 in 30.2 in -
Precipitation: 0.02 in    
Historical Graphs
 
 
Tabular Data for October 12, 2017
Time Temperature Dew Point Pressure Wind Wind Speed Wind Gust Humidity Rainfall Rate (Hourly)
00:02 60.3 °F 54.1 °F 30.2 in West 5 mph 12 mph 80 % 0 in
00:12 59.9 °F 54.1 °F 30.2 in West 3 mph 12 mph 81 % 0 in
00:17 59.7 °F 54.1 °F 30.2 in West 4 mph 11 mph 82 % 0 in
00:22 59.5 °F 54 °F 30.2 in WNW 4 mph 11 mph 82 % 0 in
00:32 59.5 °F 54.3 °F 30.2 in West 1 mph 8 mph 83 % 0 in
00:37 59.5 °F 54.3 °F 30.2 in SSE 1 mph 7 mph 83 % 0 in
00:42 59.4 °F 54.5 °F 30.2 in WSW 3 mph 7 mph 84 % 0 in
00:47 59.5 °F 54.7 °F 30.2 in SW 2 mph 6 mph 84 % 0 in
00:52 59.5 °F 54.7 °F 30.2 in WSW 4 mph 6 mph 84 % 0 in
00:57 59.5 °F 54.7 °F 30.2 in SW 4 mph 7 mph 84 % 0 in
01:02 59.5 °F 54.7 °F 30.2 in SW 7 mph 7 mph 84 % 0 in
01:12 59.5 °F 55 °F 30.2 in SW 3 mph 7 mph 85 % 0 in
01:17 59.5 °F 55 °F 30.2 in SW 1 mph 7 mph 85 % 0 in
01:27 59.5 °F 55 °F 30.2 in WSW 4 mph 8 mph 85 % 0 in
01:32 59.5 °F 55 °F 30.2 in West 4 mph 8 mph 85 % 0 in
01:47 59.2 °F 55 °F 30.2 in West 4 mph 7 mph 86 % 0 in
01:52 59.2 °F 55 °F 30.2 in Calm   6 mph 86 % 0 in
01:57 59.2 °F 55 °F 30.2 in WSW 4 mph 5 mph 86 % 0 in
02:02 59 °F 55.2 °F 30.2 in WNW 1 mph 5 mph 87 % 0 in
02:07 59 °F 55.2 °F 30.2 in SW 2 mph 4 mph 87 % 0 in
02:12 59 °F 55.2 °F 30.2 in SSW 1 mph 4 mph 87 % 0 in
02:17 58.8 °F 55 °F 30.2 in WSW 2 mph 4 mph 87 % 0 in
02:22 58.8 °F 55 °F 30.2 in SW 5 mph 5 mph 87 % 0 in
02:27 58.8 °F 55.2 °F 30.2 in West 1 mph 6 mph 88 % 0 in
02:32 58.6 °F 55 °F 30.2 in WSW 3 mph 6 mph 88 % 0 in
02:37 58.6 °F 55 °F 30.2 in SW 3 mph 6 mph 88 % 0 in
02:42 58.6 °F 55 °F 30.2 in WSW 5 mph 7 mph 88 % 0 in
02:47 58.6 °F 55 °F 30.2 in WSW 3 mph 7 mph 88 % 0 in
02:57 58.5 °F 55.2 °F 30.2 in West 6 mph 9 mph 89 % 0 in
03:02 58.3 °F 54.7 °F 30.2 in WSW 4 mph 9 mph 88 % 0 in
03:12 58.1 °F 54.9 °F 30.2 in WSW 5 mph 8 mph 89 % 0 in
03:17 57.9 °F 54.7 °F 30.2 in WSW 5 mph 8 mph 89 % 0 in
03:22 57.9 °F 54.7 °F 30.2 in SW 6 mph 9 mph 89 % 0 in
03:27 57.7 °F 54.5 °F 30.2 in West 5 mph 9 mph 89 % 0 in
03:32 57.7 °F 54.5 °F 30.2 in WSW 2 mph 8 mph 89 % 0 in
03:37 57.6 °F 54.7 °F 30.2 in SSW 4 mph 9 mph 90 % 0 in
03:42 57.6 °F 54.7 °F 30.2 in WSW 3 mph 9 mph 90 % 0 in
03:47 57.6 °F 54.7 °F 30.2 in SW 2 mph 8 mph 90 % 0 in
03:52 57.4 °F 54.5 °F 30.2 in SW 3 mph 12 mph 90 % 0 in
03:57 57.4 °F 54.5 °F 30.2 in WSW 5 mph 12 mph 90 % 0 in
04:02 57.2 °F 54.3 °F 30.2 in WSW 6 mph 9 mph 90 % 0 in
04:07 57 °F 54.5 °F 30.2 in WSW 4 mph 9 mph 91 % 0 in
04:12 56.8 °F 54.3 °F 30.2 in SW 4 mph 9 mph 91 % 0 in
04:17 56.8 °F 54.3 °F 30.2 in SW 5 mph 8 mph 91 % 0 in
04:22 56.7 °F 54.1 °F 30.2 in SSW 3 mph 8 mph 91 % 0 in
04:27 56.5 °F 54.1 °F 30.2 in West 2 mph 9 mph 92 % 0 in
04:32 56.3 °F 54 °F 30.2 in WSW 5 mph 9 mph 92 % 0 in
04:42 56.1 °F 54.1 °F 30.2 in SW 4 mph 8 mph 93 % 0 in
04:47 56.1 °F 54.1 °F 30.2 in SW 4 mph 8 mph 93 % 0 in
04:52 56.1 °F 54.1 °F 30.2 in WSW 5 mph 8 mph 93 % 0 in
04:57 56.1 °F 54.1 °F 30.2 in SW 3 mph 11 mph 93 % 0 in
05:02 56.1 °F 54.5 °F 30.2 in SW 4 mph 11 mph 94 % 0 in
05:17 55.9 °F 54.3 °F 30.2 in SSW 3 mph 8 mph 94 % 0 in
05:22 55.9 °F 54.3 °F 30.2 in SW 2 mph 8 mph 94 % 0 in
05:27 56.1 °F 54.5 °F 30.2 in WSW 4 mph 8 mph 94 % 0 in
05:32 56.1 °F 54.5 °F 30.2 in WSW 2 mph 8 mph 94 % 0 in
05:37 56.3 °F 54.7 °F 30.2 in SW 3 mph 6 mph 94 % 0 in
05:42 56.5 °F 54.9 °F 30.2 in WSW 2 mph 6 mph 94 % 0 in
05:47 56.5 °F 54.9 °F 30.2 in WSW 2 mph 7 mph 94 % 0 in
05:57 56.7 °F 55 °F 30.2 in SSE 1 mph 7 mph 94 % 0 in
06:02 56.7 °F 55 °F 30.2 in West 2 mph 7 mph 94 % 0 in
06:12 56.8 °F 55.2 °F 30.3 in Calm   5 mph 94 % 0 in
06:17 57 °F 55 °F 30.3 in Calm   5 mph 93 % 0 in
06:22 57 °F 55 °F 30.3 in WSW 4 mph 6 mph 93 % 0 in
06:27 57.2 °F 55.2 °F 30.3 in West 3 mph 6 mph 93 % 0 in
06:32 57.4 °F 55.4 °F 30.3 in SSW 2 mph 7 mph 93 % 0 in
06:42 57.4 °F 55 °F 30.3 in WSW 7 mph 9 mph 92 % 0 in
06:52 57.4 °F 55.4 °F 30.3 in West 2 mph 9 mph 93 % 0 in
07:02 57.4 °F 55.4 °F 30.3 in WNW 2 mph 7 mph 93 % 0 in
07:12 57.4 °F 55.4 °F 30.3 in SW 1 mph 4 mph 93 % 0 in
07:17 57.4 °F 55.4 °F 30.3 in West 3 mph 5 mph 93 % 0 in
07:22 57.4 °F 55.4 °F 30.3 in SW 4 mph 5 mph 93 % 0 in
07:27 57.2 °F 55.2 °F 30.3 in West 2 mph 6 mph 93 % 0 in
07:32 57.2 °F 55.2 °F 30.3 in West 4 mph 6 mph 93 % 0 in
07:42 57.2 °F 55.4 °F 30.3 in SW 5 mph 5 mph 94 % 0 in
07:47 57.2 °F 55.4 °F 30.3 in West 2 mph 7 mph 94 % 0 in
07:52 57.2 °F 55.4 °F 30.3 in WSW 3 mph 7 mph 94 % 0 in
07:57 57 °F 55.2 °F 30.3 in WSW 3 mph 6 mph 94 % 0 in
08:02 57 °F 55.2 °F 30.3 in SSW 3 mph 6 mph 94 % 0 in
08:07 57 °F 55.2 °F 30.3 in WSW 3 mph 7 mph 94 % 0 in
08:12 57 °F 55.2 °F 30.3 in WSW 7 mph 7 mph 94 % 0 in
08:17 57 °F 55.2 °F 30.3 in SW 3 mph 8 mph 94 % 0 in
08:27 57 °F 55.2 °F 30.3 in West 3 mph 7 mph 94 % 0 in
08:32 57.2 °F 55.4 °F 30.3 in West 6 mph 7 mph 94 % 0 in
08:37 57.2 °F 55.4 °F 30.3 in West 3 mph 9 mph 94 % 0 in
08:42 57 °F 55.2 °F 30.3 in SW 4 mph 9 mph 94 % 0 in
08:52 57 °F 55.2 °F 30.3 in SW 3 mph 6 mph 94 % 0 in
09:02 57 °F 55.6 °F 30.3 in West 2 mph 8 mph 95 % 0 in
09:12 56.8 °F 55.4 °F 30.3 in South 1 mph 6 mph 95 % 0 in
09:17 56.8 °F 55.4 °F 30.3 in SW 3 mph 6 mph 95 % 0 in
09:22 56.8 °F 55.4 °F 30.3 in SW 3 mph 6 mph 95 % 0 in
09:32 56.8 °F 55.4 °F 30.3 in SSW 4 mph 7 mph 95 % 0 in
09:37 56.8 °F 55.4 °F 30.3 in SW 2 mph 9 mph 95 % 0 in
09:42 56.8 °F 55.4 °F 30.3 in SW 4 mph 9 mph 95 % 0 in
09:47 56.8 °F 55.4 °F 30.3 in SSW 4 mph 9 mph 95 % 0 in
09:52 57 °F 55.6 °F 30.3 in WSW 2 mph 9 mph 95 % 0 in
09:57 57.2 °F 55.8 °F 30.3 in WSW 2 mph 6 mph 95 % 0 in
10:02 57.2 °F 55.8 °F 30.3 in West 1 mph 6 mph 95 % 0 in
10:12 57.4 °F 55.9 °F 30.3 in SW 2 mph 5 mph 95 % 0 in
10:22 57.6 °F 55.8 °F 30.3 in WSW 1 mph 6 mph 94 % 0 in
10:32 57.7 °F 55.9 °F 30.3 in WSW 3 mph 7 mph 94 % 0 in
10:42 57.9 °F 56.1 °F 30.3 in SSW 4 mph 7 mph 94 % 0 in
10:47 57.9 °F 56.1 °F 30.3 in West 3 mph 9 mph 94 % 0 in
10:52 57.9 °F 56.1 °F 30.3 in SSW 5 mph 9 mph 94 % 0 in
10:57 58.1 °F 56.3 °F 30.3 in SW 2 mph 8 mph 94 % 0 in
11:02 58.3 °F 56.5 °F 30.3 in West 2 mph 8 mph 94 % 0 in
11:12 58.5 °F 56.7 °F 30.4 in South 3 mph 8 mph 94 % 0 in
11:17 58.5 °F 56.7 °F 30.3 in South 3 mph 6 mph 94 % 0 in
11:22 58.5 °F 56.7 °F 30.4 in SSW 4 mph 6 mph 94 % 0 in
11:32 58.5 °F 56.7 °F 30.4 in WSW 3 mph 8 mph 94 % 0 in
11:37 58.5 °F 56.7 °F 30.4 in SW 4 mph 8 mph 94 % 0 in
11:42 58.5 °F 56.7 °F 30.4 in West 3 mph 8 mph 94 % 0 in
11:52 58.6 °F 57.2 °F 30.4 in SW 4 mph 7 mph 95 % 0 in
11:57 58.6 °F 57.2 °F 30.4 in WSW 3 mph 8 mph 95 % 0 in
12:02 58.8 °F 57.4 °F 30.4 in SW 6 mph 8 mph 95 % 0 in
12:12 58.6 °F 57.2 °F 30.4 in SSW 4 mph 8 mph 95 % 0 in
12:17 58.6 °F 57.2 °F 30.4 in SW 4 mph 9 mph 95 % 0 in
12:22 58.6 °F 57.2 °F 30.4 in SSW 3 mph 9 mph 95 % 0 in
12:32 58.8 °F 57.4 °F 30.4 in SW 4 mph 9 mph 95 % 0 in
12:42 59 °F 57.6 °F 30.4 in SW 3 mph 9 mph 95 % 0 in
12:47 59.2 °F 57.7 °F 30.4 in SW 2 mph 9 mph 95 % 0 in
12:52 59.2 °F 57.7 °F 30.4 in WSW 1 mph 8 mph 95 % 0 in
12:57 59.4 °F 57.9 °F 30.4 in SW 3 mph 8 mph 95 % 0 in
13:02 59.4 °F 57.9 °F 30.4 in SW 1 mph 6 mph 95 % 0 in
13:12 59.5 °F 57.7 °F 30.4 in SW 4 mph 6 mph 94 % 0 in
13:17 59.7 °F 57.9 °F 30.4 in WSW 4 mph 8 mph 94 % 0 in
13:22 59.7 °F 57.9 °F 30.4 in SW 5 mph 8 mph 94 % 0 in
13:27 59.9 °F 58.1 °F 30.4 in SW 4 mph 8 mph 94 % 0 in
13:32 60.1 °F 58.3 °F 30.4 in SSW 4 mph 8 mph 94 % 0 in
13:37 60.3 °F 58.3 °F 30.4 in WSW 3 mph 7 mph 93 % 0 in
13:42 60.4 °F 58.1 °F 30.4 in SW 3 mph 8 mph 92 % 0 in
13:47 60.4 °F 58.1 °F 30.4 in SW 7 mph 8 mph 92 % 0 in
13:52 60.6 °F 58.3 °F 30.4 in SW 4 mph 8 mph 92 % 0 in
14:02 60.8 °F 58.5 °F 30.4 in South 5 mph 8 mph 92 % 0 in
14:12 60.8 °F 58.5 °F 30.4 in SSW 4 mph 7 mph 92 % 0 in
14:17 60.6 °F 58.6 °F 30.4 in SSW 4 mph 7 mph 93 % 0 in
14:22 60.4 °F 58.5 °F 30.4 in SSW 4 mph 7 mph 93 % 0.01 in
14:32 60.6 °F 59.2 °F 30.4 in SW 2 mph 6 mph 95 % 0.01 in
14:37 60.8 °F 59 °F 30.4 in SW 1 mph 6 mph 94 % 0.01 in
14:42 60.8 °F 59 °F 30.4 in SW 1 mph 5 mph 94 % 0.01 in
14:47 61.2 °F 59.4 °F 30.4 in SW 1 mph 4 mph 94 % 0.01 in
14:52 61.3 °F 59.5 °F 30.4 in SW 1 mph 5 mph 94 % 0.01 in
14:57 61.3 °F 59.4 °F 30.4 in WSW 2 mph 5 mph 93 % 0.01 in
15:12 61 °F 59.2 °F 30.4 in WSW 2 mph 8 mph 94 % 0.02 in
15:22 61 °F 59.2 °F 30.4 in WSW 5 mph 7 mph 94 % 0.01 in
15:32 61.2 °F 59.4 °F 30.4 in SW 7 mph 7 mph 94 % 0.01 in
15:37 61 °F 59.2 °F 30.4 in SSW 2 mph 7 mph 94 % 0.01 in
15:42 61 °F 59.2 °F 30.4 in SW 4 mph 7 mph 94 % 0.01 in
15:47 61.2 °F 59.2 °F 30.4 in WSW 5 mph 7 mph 93 % 0.01 in
15:52 61 °F 59 °F 30.4 in SW 2 mph 7 mph 93 % 0.01 in
15:57 61 °F 59 °F 30.4 in West 3 mph 7 mph 93 % 0.01 in
16:02 61.2 °F 59.2 °F 30.4 in SW 5 mph 7 mph 93 % 0 in
16:12 61.2 °F 58.3 °F 30.3 in WSW 2 mph 6 mph 90 % 0 in
16:17 61.3 °F 58.5 °F 30.3 in SW 3 mph 7 mph 90 % 0 in
16:22 61.3 °F 58.5 °F 30.3 in SW 3 mph 7 mph 90 % 0 in
16:32 61.9 °F 59 °F 30.3 in West 2 mph 6 mph 90 % 0 in
16:37 62.1 °F 59.2 °F 30.3 in SSW 3 mph 6 mph 90 % 0 in
16:42 62.2 °F 59.2 °F 30.3 in SSW 2 mph 6 mph 90 % 0 in
16:47 62.6 °F 59.4 °F 30.3 in WSW 2 mph 6 mph 89 % 0 in
16:52 63 °F 59.7 °F 30.3 in SW 3 mph 6 mph 89 % 0 in
16:57 63.3 °F 59.7 °F 30.3 in SW 3 mph 6 mph 88 % 0 in
17:02 63.3 °F 59.7 °F 30.3 in WNW 1 mph 5 mph 88 % 0 in
17:07 63.3 °F 59.7 °F 30.3 in WSW 3 mph 5 mph 88 % 0 in
17:17 63.9 °F 59.9 °F 30.3 in WSW 2 mph 5 mph 87 % 0 in
17:22 64 °F 60.1 °F 30.3 in WSW 6 mph 6 mph 87 % 0 in
17:32 64.8 °F 60.4 °F 30.3 in SW 4 mph 6 mph 86 % 0 in
17:37 64.8 °F 60.1 °F 30.3 in West 3 mph 6 mph 85 % 0 in
17:42 64.6 °F 59.9 °F 30.3 in West 2 mph 4 mph 85 % 0 in
17:47 64.8 °F 59.9 °F 30.3 in SW 1 mph 6 mph 84 % 0 in
17:57 64.9 °F 59.4 °F 30.3 in SSW 3 mph 5 mph 82 % 0 in
18:02 64.8 °F 59.2 °F 30.3 in SW 2 mph 5 mph 82 % 0 in
18:12 64.8 °F 59.2 °F 30.3 in WSW 2 mph 5 mph 82 % 0 in
18:17 64.8 °F 59.2 °F 30.3 in SSW 2 mph 5 mph 82 % 0 in
18:22 64.8 °F 59.2 °F 30.3 in SW 2 mph 5 mph 82 % 0 in
18:32 64.2 °F 59 °F 30.3 in SW 1 mph 4 mph 83 % 0 in
18:42 63.3 °F 58.8 °F 30.4 in SW 2 mph 4 mph 85 % 0 in
18:47 63 °F 58.6 °F 30.3 in SSW 1 mph 3 mph 86 % 0 in
18:52 62.4 °F 58.1 °F 30.3 in SW 1 mph 3 mph 86 % 0 in
18:57 61.9 °F 57.9 °F 30.3 in SSW 1 mph 3 mph 87 % 0 in
19:02 61.3 °F 57.7 °F 30.3 in Calm   2 mph 88 % 0 in
19:12 61.2 °F 57.9 °F 30.4 in Calm   2 mph 89 % 0 in
19:17 61 °F 57.7 °F 30.4 in Calm   2 mph 89 % 0 in
19:22 60.8 °F 57.6 °F 30.4 in Calm   2 mph 89 % 0 in
19:32 60.3 °F 57 °F 30.4 in Calm     89 % 0 in
19:42 59.5 °F 56.7 °F 30.4 in Calm     90 % 0 in
19:52 59.2 °F 56.8 °F 30.4 in Calm     92 % 0 in
20:02 58.5 °F 56.1 °F 30.4 in Calm     92 % 0 in
20:07 58.3 °F 56.3 °F 30.4 in Calm     93 % 0 in
20:12 57.9 °F 55.9 °F 30.4 in Calm     93 % 0 in
20:17 57.6 °F 55.8 °F 30.4 in Calm     94 % 0 in
20:22 57.4 °F 55.6 °F 30.4 in Calm     94 % 0 in
20:27 57.4 °F 55.9 °F 30.4 in Calm     95 % 0 in
20:32 57.2 °F 55.4 °F 30.4 in Calm     94 % 0 in
20:37 57.4 °F 55.9 °F 30.4 in Calm     95 % 0 in
20:42 57.4 °F 55.9 °F 30.4 in NNE 1 mph 2 mph 95 % 0 in
20:47 57.4 °F 55.9 °F 30.4 in NNE 1 mph 2 mph 95 % 0 in
20:52 57 °F 55.6 °F 30.4 in Calm   2 mph 95 % 0 in
20:57 56.8 °F 55.4 °F 30.4 in Calm   1 mph 95 % 0 in
21:02 56.7 °F 55.2 °F 30.4 in NNE 1 mph 1 mph 95 % 0 in
21:12 56.5 °F 55.4 °F 30.4 in NNW 1 mph 1 mph 96 % 0 in
21:17 55.9 °F 54.5 °F 30.4 in Calm   1 mph 95 % 0 in
21:27 55.9 °F 54.9 °F 30.4 in Calm   1 mph 96 % 0 in
21:32 55.9 °F 54.9 °F 30.4 in Calm   1 mph 96 % 0 in
21:42 55.9 °F 54.9 °F 30.4 in Calm   1 mph 96 % 0 in
21:47 55.8 °F 54.7 °F 30.4 in Calm   1 mph 96 % 0 in
21:52 56.1 °F 55.2 °F 30.4 in Calm   1 mph 97 % 0 in
21:57 56.1 °F 55 °F 30.4 in Calm     96 % 0 in
22:02 55.6 °F 54.5 °F 30.4 in Calm     96 % 0 in
22:12 54.3 °F 53.2 °F 30.4 in Calm     96 % 0 in
22:17 54 °F 52.9 °F 30.4 in Calm     96 % 0 in
22:22 54 °F 53.1 °F 30.4 in Calm     97 % 0 in
22:27 54.1 °F 53.2 °F 30.4 in Calm     97 % 0 in
22:32 54 °F 52.9 °F 30.4 in Calm     96 % 0 in
22:37 53.8 °F 52.7 °F 30.4 in Calm     96 % 0 in
22:47 54.3 °F 53.4 °F 30.4 in Calm     97 % 0 in
22:52 54.5 °F 53.6 °F 30.4 in Calm     97 % 0 in
23:02 53.8 °F 52.7 °F 30.4 in Calm     96 % 0 in
23:07 53.8 °F 52.9 °F 30.4 in Calm     97 % 0 in
23:12 54.1 °F 53.2 °F 30.4 in Calm     97 % 0 in
23:17 53.8 °F 52.7 °F 30.4 in Calm     96 % 0 in
23:22 53.4 °F 52.3 °F 30.4 in Calm     96 % 0 in
23:32 53.4 °F 52.5 °F 30.4 in Calm     97 % 0 in
23:37 53.6 °F 52.7 °F 30.4 in Calm     97 % 0 in
23:42 53.2 °F 52.2 °F 30.4 in Calm     96 % 0 in
23:47 53.4 °F 52.5 °F 30.4 in Calm     97 % 0 in
23:52 53.2 °F 52.3 °F 30.4 in Calm     97 % 0 in
23:57 53.1 °F 52 °F 30.4 in Calm     96 % 0 in
Meteo18
Compliments of Weather Underground - 4 mb

Script developed by  Jim McMurry - jmcmurry@mwt.net Adapted for the template by  Wim van der Kuil - Leuven-Template.eu

You find our weather info also at:

European Weather Network

Weather Underground

Equipment we use:

Weather-station
Davis Vue

Weather-program
Meteohub

Weather-server
Raspberry PI 2 B+

Provider
1 and 1

Davis Vue

Meteohub

Raspberry PI 2 B+

1 and 1